This demonstration page uses our WeatherBlox Daily Observations layout. Learn more.

Left ArrowRight Arrow

53.62937, 11.41316

Hourly Observations for January 4, 2022

Temp ( °F °C ) Dew Point ( °F °C ) Humidity (%) Winds ( mph kmh ) Pressure ( in mb ) Visibility ( mi km ) Precip ( " mm )
12:20 am 00:20 Mostly Cloudy 46 8 41 5 82 82 SW 7 11 29.50 999 30 48 N/A
12:50 am 00:50 Mostly Cloudy 46 8 41 5 82 82 VRB 7 11 29.47 998 30 48 N/A
1:20 am 01:20 Mostly Cloudy 46 8 41 5 82 82 SW 8 13 29.47 998 30 48 N/A
1:50 am 01:50 Cloudy 46 8 41 5 82 82 SW 8 13 29.47 998 30 48 N/A
2:20 am 02:20 Mostly Cloudy 46 8 41 5 82 82 VRB 7 11 29.44 997 30 48 N/A
2:50 am 02:50 Cloudy 45 7 41 5 87 87 VRB 6 9 29.44 997 30 48 N/A
3:20 am 03:20 Mostly Cloudy 45 7 41 5 87 87 VRB 7 11 29.44 997 30 48 N/A
4:20 am 04:20 Mostly Cloudy 45 7 41 5 87 87 SSW 7 11 29.41 996 30 48 N/A
4:50 am 04:50 Mostly Cloudy 45 7 41 5 87 87 SSW 5 7 29.38 995 30 48 N/A
5:20 am 05:20 Mostly Cloudy 45 7 41 5 87 87 VRB 5 7 29.38 995 30 48 N/A
5:50 am 05:50 Mostly Cloudy 45 7 41 5 87 87 VRB 5 7 29.38 995 30 48 N/A
6:20 am 06:20 Mostly Cloudy 45 7 43 6 93 93 SSW 6 9 29.35 994 30 48 N/A
6:50 am 06:50 Mostly Cloudy 45 7 43 6 93 93 VRB 6 9 29.35 994 30 48 N/A
7:20 am 07:20 Mostly Cloudy with Light Rain 45 7 43 6 93 93 SW 5 7 29.35 994 6 9 N/A
7:50 am 07:50 Mostly Cloudy with Light Rain 45 7 43 6 93 93 SSW 5 7 29.32 993 30 48 N/A
8:20 am 08:20 Mostly Cloudy 45 7 43 6 93 93 SSW 5 7 29.32 993 30 48 N/A
8:50 am 08:50 Mostly Cloudy 45 7 41 5 87 87 SSW 5 7 29.32 993 30 48 N/A
9:20 am 09:20 Mostly Cloudy with Light Rain 45 7 43 6 93 93 VRB 5 7 29.32 993 4 6 N/A
9:50 am 09:50 Mostly Cloudy with Light Rain 45 7 43 6 93 93 VRB 6 9 29.32 993 4 6 N/A
10:20 am 10:20 Mostly Cloudy with Light Rain 45 7 43 6 93 93 SW 5 7 29.30 992 5 8 N/A
10:50 am 10:50 Mostly Cloudy with Light Rain 45 7 43 6 93 93 SSW 3 6 29.30 992 4 6 N/A
11:20 am 11:20 Mostly Cloudy with Light Rain 45 7 43 6 93 93 SSW 5 7 29.30 992 6 9 N/A
12:50 pm 12:50 Mostly Cloudy 46 8 43 6 87 87 VRB 5 7 29.27 991 30 48 N/A
1:20 pm 13:20 Mostly Cloudy 46 8 43 6 87 87 VRB 7 11 29.24 990 30 48 N/A
1:50 pm 13:50 Mostly Cloudy 45 7 41 5 87 87 W 12 19 29.24 990 30 48 N/A
2:20 pm 14:20 Mostly Cloudy 45 7 39 4 81 81 W 10 17 29.27 991 30 48 N/A
2:50 pm 14:50 Mostly Cloudy 43 6 39 4 87 87 W 14 22 29.27 991 30 48 N/A
3:20 pm 15:20 Mostly Cloudy with Light Rain 41 5 39 4 93 93 NW 10 17 29.30 992 30 48 N/A
3:50 pm 15:50 Mostly Cloudy 39 4 37 3 93 93 WNW 12 19 29.30 992 30 48 N/A
4:20 pm 16:20 Mostly Cloudy 39 4 36 2 87 87 W 5 7 29.30 992 30 48 N/A
4:50 pm 16:50 Mostly Cloudy 39 4 36 2 87 87 WSW 5 7 29.30 992 30 48 N/A
5:20 pm 17:20 Mostly Clear 39 4 36 2 87 87 WSW 6 9 29.30 992 7 11 N/A
6:20 pm 18:20 Partly Cloudy 39 4 36 2 87 87 WSW 7 11 29.33 993 30 48 N/A
6:50 pm 18:50 Mostly Clear 39 4 36 2 87 87 WSW 7 11 29.33 993 30 48 N/A
7:20 pm 19:20 Mostly Clear 37 3 36 2 93 93 WSW 7 11 29.33 993 7 11 N/A
7:50 pm 19:50 Mostly Clear 37 3 34 1 87 87 WSW 7 11 29.33 993 7 11 N/A
8:20 pm 20:20 Mostly Clear 37 3 34 1 87 87 WSW 7 11 29.33 993 7 11 N/A
8:50 pm 20:50 Mostly Clear 37 3 34 1 87 87 WSW 9 15 29.33 993 7 11 N/A
9:20 pm 21:20 Mostly Clear 37 3 34 1 87 87 WSW 8 13 29.33 993 30 48 N/A
9:50 pm 21:50 Mostly Clear 37 3 34 1 87 87 WSW 8 13 29.36 994 30 48 N/A
10:20 pm 22:20 Partly Cloudy 36 2 34 1 93 93 SW 7 11 29.36 994 30 48 N/A
10:50 pm 22:50 Mostly Clear 36 2 34 1 93 93 SW 7 11 29.36 994 30 48 N/A
11:20 pm 23:20 Mostly Clear 36 2 34 1 93 93 SW 7 11 29.36 994 30 48 N/A
11:50 pm 23:50 Mostly Clear 36 2 34 1 93 93 SW 7 11 29.36 994 30 48 N/A

Powered by AerisWeather